This is the latest recevied weather packets stored in our database for station/object DL7GAI-7. If no packets are shown the sender has not sent any weather packets the latest 1 day(s).
| Time | Temp. | Humidity | Pressure | Rain* | Wind** | Luminosity | Snow |
|---|---|---|---|---|---|---|---|
| 1778057260 | 12.22° C | 89% | 1006.8 hPa | 0 mm | 0.89 m/s, 225° | - | - |
| 1778056510 | 12.22° C | 87% | 1006.9 hPa | 0 mm | 0.45 m/s, 315° | - | - |
| 1778055666 | 12.22° C | 87% | 1006.9 hPa | 0 mm | 0.45 m/s, 315° | - | - |
| 1778054815 | 12.22° C | 87% | 1006.9 hPa | 0 mm | 0.45 m/s, 315° | - | - |
| 1778053125 | 11.11° C | 93% | 1007.2 hPa | 0 mm | 1.34 m/s, 315° | - | - |
| 1778052371 | 11.11° C | 95% | 1007.2 hPa | 0 mm | 0.89 m/s, 180° | - | - |
| 1778051507 | 11.11° C | 95% | 1007.2 hPa | 0 mm | 0.89 m/s, 180° | - | - |
| 1778050660 | 10.56° C | 95% | 1007.4 hPa | 0 mm | 0.89 m/s, 225° | - | - |
| 1778049805 | 10.56° C | 95% | 1007.4 hPa | 0 mm | 0.89 m/s, 225° | - | - |
| 1778048995 | 9.44° C | 97% | 1007.6 hPa | 0 mm | 0.45 m/s, 315° | - | - |
| 1778048190 | 9.44° C | 97% | 1007.6 hPa | 0 mm | 0.45 m/s, 315° | - | - |
| 1778047395 | 8.33° C | 96% | 1007.9 hPa | 0 mm | 0.89 m/s, 270° | - | - |
| 1778046595 | 8.33° C | 96% | 1007.9 hPa | 0 mm | 0.89 m/s, 270° | - | - |
| 1778045765 | 8.33° C | 96% | 1007.9 hPa | 0 mm | 0.89 m/s, 270° | - | - |
| 1778044925 | 8.33° C | 97% | 1008.1 hPa | 0 mm | 0.89 m/s, 0° | - | - |
| 1778043315 | 8.33° C | 97% | 1008.7 hPa | 0 mm | 1.34 m/s, 0° | - | - |
| 1778042480 | 8.33° C | 97% | 1008.7 hPa | 0 mm | 1.34 m/s, 0° | - | - |
| 1778041740 | 8.33° C | 97% | 1008.7 hPa | 0 mm | 1.34 m/s, 0° | - | - |
| 1778040981 | 8.33° C | 97% | 1008.7 hPa | 0 mm | 1.34 m/s, 0° | - | - |
| 1778040260 | 8.33° C | 96% | 1009 hPa | 0 mm | 1.34 m/s, 45° | - | - |
| 1778039365 | 8.33° C | 96% | 1009 hPa | 0 mm | 1.34 m/s, 45° | - | - |
| 1778037735 | 8.33° C | 95% | 1009.1 hPa | 0 mm | 0.89 m/s, 0° | - | - |
| 1778036859 | 8.33° C | 95% | 1009.1 hPa | 0 mm | 0.89 m/s, 0° | - | - |
| 1778036068 | 8.33° C | 96% | 1009.4 hPa | 0 mm | 0.89 m/s, 0° | - | - |
| 1778035245 | 8.33° C | 96% | 1009.4 hPa | 0 mm | 0.89 m/s, 0° | - | - |
* Rain latest hour (hover to see other rain measurements)
** Current wind speed in m/s (hover to see current wind gust speed)